星链-37653(STARLINK-37653)

导读

STARLINK-37653(NORAD编号69140)是美国SpaceX公司星链(Starlink)卫星互联网星座中的一颗低轨卫星,隶属于全球大规模低轨卫星互联网组网项目。 作为星链星座的组成部分,该卫星运行于近地轨道,主要承担全球高速低延迟互联网接入服务,可为偏远地区、航空航海场景提供网络覆盖,服务商业民用通信需求,同时星链星座也具备潜在军事通信应用能力。 它是星链持续扩展星座规模过程中部署的卫星,目前处于在轨运行状态,助力SpaceX实现全球卫星互联网覆盖的建设目标,也引发了太空拥堵与天文观测干扰的相关讨论。

Basic Information
目录编号:
69140
目录名称:
STARLINK-37653
国际标识:
2026-110S
轨道中心:
EARTH
卫星名称:
星链-37653
卫星全名:
星链-37653(STARLINK-37653)
卫星状态:
在轨 (已飞行116 天)
发射日期:
2026-05-20 UTC
国别 :
美国 (US)
星等 :
--
This satellite is enrolled in the Space Conjunction Data Service (SCDS) and the current flight risk assessment level is: No High Risk
Orbit Information
数据来源 国际轨道数据 AOE轨道数据
星历时间 2026-09-13T10:19:39+0800
10小时前
查看轨道信息
2026-09-07T02:00:00+0800
6天前
查看轨道信息
半长轴 6843.724km 6843.743km
偏心率 0.0001541 0.0001908
轨道倾角 97.285° 97.282°
近地点辐角 89.398° 110.203°
升交点赤经 91.290° 85.035°
平近点角 270.744° 155.038°
近地点 464.532km 464.3km
远地点 466.642km 466.912km
周期 93.907分钟 93.907分钟
每日圈数 15.334306 15.33424
Detailed Information
固有亮度:
5
最大亮度:
2.5
卫星平台:
Starlink V1.0
覆盖范围:
全球
运营商:
太空探索技术公司
运营商所在国:
美国
制造商(研发单位):
太空探索技术公司
制造商所在国:
美国
使用方式:
暂无
Satellite Introduction
Starlink 计划是 SpaceX 推出的全球卫星互联网项目,通过发射低轨道卫星,为全球尤其是偏远地区提供高速、低延迟的互联网服务。自 2019 年起,Starlink 已部署数千颗卫星,旨在缩小全球数字鸿沟,推动互联网普及。该项目还为军事、航空等行业提供通信支持,带来广泛经济效益。
2D Orbit Map
3D Orbit Map
Orbit Altitude Analysis Chart
Orbit Inclination Analysis Chart
Orbit Comprehensive Analysis Chart
View Comprehensive Chart
Conjunction Data List
Event ID Objects TCA Miss Dist (km) Collision Risk Probability Collision Risk Index (CRI) Action
CDM_260913-101405-804306-914021
2026-09-13T
10:14:45+0000
2.095 km
极远距离
2.535033E-6 低风险 0.43
CDM_260913-172006-166406-914021
2026-09-13T
17:20:57+0000
2.688 km
极远距离
1.534607E-6 低风险 0.39
CDM_260914-055704-975006-914021
2026-09-14T
05:57:42+0000
2.433 km
极远距离
1.521931E-6 低风险 0.39
CDM_260913-202706-223106-914021
2026-09-13T
20:27:30+0000
2.245 km
极远距离
1.33334E-6 低风险 0.37
CDM_260913-111006-350706-914021
2026-09-13T
11:10:23+0000
2.937 km
极远距离
1.230155E-6 低风险 0.37
Miss Distance Evolution Trend with All Objects
Collision Probability Evolution Trend with All Objects